Time,TemperatureF,DewpointF,PressureIn,WindDirection,WindDirectionDegrees,WindSpeedMPH,WindSpeedGustMPH,Humidity,HourlyPrecipIn,Conditions,Clouds,dailyrainin,SoftwareType,DateUTC
2013-01-29 00:03:00,67.3,64.6,30.24,East,98,0.0,2.0,91,0.00,,,0.00,meteohub,2013-01-29 05:03:00,
2013-01-29 00:07:00,67.3,64.6,30.25,ESE,105,1.0,2.0,91,0.00,,,0.00,meteohub,2013-01-29 05:07:00,
2013-01-29 00:12:00,67.1,64.4,30.24,ENE,61,0.0,2.0,91,0.00,,,0.00,meteohub,2013-01-29 05:12:00,
2013-01-29 00:17:00,67.3,64.6,30.24,East,85,2.0,3.0,91,0.00,,,0.00,meteohub,2013-01-29 05:17:00,
2013-01-29 00:22:00,67.3,64.6,30.24,East,84,1.0,4.0,91,0.00,,,0.00,meteohub,2013-01-29 05:22:00,
2013-01-29 00:27:00,67.3,64.6,30.24,East,84,2.0,4.0,91,0.00,,,0.00,meteohub,2013-01-29 05:27:00,
2013-01-29 00:32:00,67.3,64.6,30.24,East,83,2.0,4.0,91,0.00,,,0.00,meteohub,2013-01-29 05:32:00,
2013-01-29 00:37:00,67.3,64.6,30.24,East,88,1.0,5.0,91,0.00,,,0.00,meteohub,2013-01-29 05:37:00,
2013-01-29 00:42:00,67.5,64.8,30.23,East,82,1.0,5.0,91,0.00,,,0.00,meteohub,2013-01-29 05:42:00,
2013-01-29 00:47:00,67.5,64.8,30.23,ESE,121,2.0,6.0,91,0.00,,,0.00,meteohub,2013-01-29 05:47:00,
2013-01-29 00:52:00,67.6,64.6,30.23,East,92,3.0,6.0,90,0.00,,,0.00,meteohub,2013-01-29 05:52:00,
2013-01-29 00:57:00,67.6,64.6,30.23,NE,55,3.0,6.0,90,0.00,,,0.00,meteohub,2013-01-29 05:57:00,
2013-01-29 01:02:00,67.6,64.6,30.23,East,92,0.0,6.0,90,0.00,,,0.00,meteohub,2013-01-29 06:02:00,
2013-01-29 01:07:00,67.6,64.6,30.23,East,82,1.0,7.0,90,0.00,,,0.00,meteohub,2013-01-29 06:07:00,
2013-01-29 01:12:00,67.6,64.6,30.23,ESE,102,1.0,7.0,90,0.00,,,0.00,meteohub,2013-01-29 06:12:00,
2013-01-29 01:17:00,67.5,64.4,30.23,NNE,12,1.0,7.0,90,0.00,,,0.00,meteohub,2013-01-29 06:17:00,
2013-01-29 01:22:00,67.5,64.4,30.23,ENE,73,3.0,5.0,90,0.00,,,0.00,meteohub,2013-01-29 06:22:00,
2013-01-29 01:27:00,67.5,64.4,30.23,ENE,57,2.0,5.0,90,0.00,,,0.00,meteohub,2013-01-29 06:27:00,
2013-01-29 01:32:00,67.5,64.4,30.22,ENE,71,4.0,5.0,90,0.00,,,0.00,meteohub,2013-01-29 06:32:00,
2013-01-29 01:37:00,67.5,64.4,30.22,East,101,2.0,6.0,90,0.00,,,0.00,meteohub,2013-01-29 06:37:00,
2013-01-29 01:42:00,67.3,64.2,30.22,East,94,6.0,6.0,90,0.00,,,0.00,meteohub,2013-01-29 06:42:00,
2013-01-29 01:47:00,67.3,64.2,30.22,East,91,6.0,10.0,90,0.00,,,0.00,meteohub,2013-01-29 06:47:00,
2013-01-29 01:52:00,67.3,64.2,30.22,NE,51,4.0,10.0,90,0.00,,,0.00,meteohub,2013-01-29 06:52:00,
2013-01-29 01:57:00,67.3,64.2,30.22,ESE,103,2.0,10.0,90,0.00,,,0.00,meteohub,2013-01-29 06:57:00,
2013-01-29 02:02:00,67.1,64.4,30.22,East,84,1.0,7.0,91,0.00,,,0.00,meteohub,2013-01-29 07:02:00,
2013-01-29 02:07:00,67.1,64.4,30.21,ESE,115,4.0,5.0,91,0.00,,,0.00,meteohub,2013-01-29 07:07:00,
2013-01-29 02:12:00,66.9,64.2,30.21,East,81,2.0,5.0,91,0.00,,,0.00,meteohub,2013-01-29 07:12:00,
2013-01-29 02:17:00,66.9,64.2,30.21,ESE,103,0.0,5.0,91,0.00,,,0.00,meteohub,2013-01-29 07:17:00,
2013-01-29 02:22:00,66.7,64.0,30.21,East,83,0.0,5.0,91,0.00,,,0.00,meteohub,2013-01-29 07:22:00,
2013-01-29 02:27:00,66.6,63.9,30.21,ESE,103,0.0,3.0,91,0.00,,,0.00,meteohub,2013-01-29 07:27:00,
2013-01-29 02:32:00,66.6,63.9,30.21,East,98,1.0,3.0,91,0.00,,,0.00,meteohub,2013-01-29 07:32:00,
2013-01-29 02:37:00,66.4,63.7,30.21,East,98,1.0,3.0,91,0.00,,,0.00,meteohub,2013-01-29 07:37:00,
2013-01-29 02:42:00,66.4,64.0,30.21,ENE,69,0.0,3.0,92,0.00,,,0.00,meteohub,2013-01-29 07:42:00,
2013-01-29 02:47:00,66.2,63.5,30.21,East,96,0.0,3.0,91,0.00,,,0.00,meteohub,2013-01-29 07:47:00,
2013-01-29 02:52:00,66.0,63.7,30.21,East,96,0.0,2.0,92,0.00,,,0.00,meteohub,2013-01-29 07:52:00,
2013-01-29 03:02:00,65.8,63.5,30.21,East,96,0.0,1.0,92,0.00,,,0.00,meteohub,2013-01-29 08:02:00,
2013-01-29 03:07:00,65.8,63.5,30.22,East,96,0.0,1.0,92,0.00,,,0.00,meteohub,2013-01-29 08:07:00,
2013-01-29 03:12:00,65.7,63.3,30.21,East,96,0.0,1.0,92,0.00,,,0.00,meteohub,2013-01-29 08:12:00,
2013-01-29 03:17:00,65.7,63.5,30.21,East,96,0.0,1.0,93,0.00,,,0.00,meteohub,2013-01-29 08:17:00,
2013-01-29 03:22:00,65.5,63.3,30.21,East,96,0.0,1.0,93,0.00,,,0.00,meteohub,2013-01-29 08:22:00,
2013-01-29 03:27:00,65.1,63.0,30.22,East,96,0.0,0.0,93,0.00,,,0.00,meteohub,2013-01-29 08:27:00,
2013-01-29 03:32:00,64.9,62.8,30.22,East,96,0.0,1.0,93,0.00,,,0.00,meteohub,2013-01-29 08:32:00,
2013-01-29 03:37:00,64.9,62.8,30.22,East,96,0.0,1.0,93,0.00,,,0.00,meteohub,2013-01-29 08:37:00,
2013-01-29 03:42:00,64.8,63.0,30.22,East,96,0.0,1.0,94,0.00,,,0.00,meteohub,2013-01-29 08:42:00,
2013-01-29 03:52:00,64.6,62.8,30.21,East,96,0.0,1.0,94,0.00,,,0.00,meteohub,2013-01-29 08:52:00,
2013-01-29 03:57:00,64.2,62.4,30.21,East,96,0.0,0.0,94,0.00,,,0.00,meteohub,2013-01-29 08:57:00,
2013-01-29 04:02:00,64.2,62.4,30.21,East,96,0.0,1.0,94,0.00,,,0.00,meteohub,2013-01-29 09:02:00,
2013-01-29 04:07:00,64.0,62.2,30.21,East,96,0.0,1.0,94,0.00,,,0.00,meteohub,2013-01-29 09:07:00,
2013-01-29 04:12:00,63.9,62.1,30.21,East,96,0.0,1.0,94,0.00,,,0.00,meteohub,2013-01-29 09:12:00,
2013-01-29 04:17:00,63.9,62.1,30.21,East,96,0.0,0.0,94,0.00,,,0.00,meteohub,2013-01-29 09:17:00,
2013-01-29 04:22:00,63.5,61.7,30.21,East,96,0.0,0.0,94,0.00,,,0.00,meteohub,2013-01-29 09:22:00,
2013-01-29 04:27:00,63.1,61.3,30.21,East,96,0.0,0.0,94,0.00,,,0.00,meteohub,2013-01-29 09:27:00,
2013-01-29 04:32:00,63.0,61.2,30.21,East,96,0.0,0.0,94,0.00,,,0.00,meteohub,2013-01-29 09:32:00,
2013-01-29 04:37:00,63.0,61.2,30.21,East,96,0.0,0.0,94,0.00,,,0.00,meteohub,2013-01-29 09:37:00,
2013-01-29 04:42:00,62.8,61.0,30.21,East,96,0.0,0.0,94,0.00,,,0.00,meteohub,2013-01-29 09:42:00,
2013-01-29 04:47:00,62.6,60.8,30.21,East,96,0.0,0.0,94,0.00,,,0.00,meteohub,2013-01-29 09:47:00,
2013-01-29 04:52:00,62.4,60.6,30.21,East,96,0.0,0.0,94,0.00,,,0.00,meteohub,2013-01-29 09:52:00,
2013-01-29 04:57:00,62.4,61.0,30.21,East,96,0.0,1.0,95,0.00,,,0.00,meteohub,2013-01-29 09:57:00,
2013-01-29 05:02:00,62.4,61.0,30.21,East,96,0.0,1.0,95,0.00,,,0.00,meteohub,2013-01-29 10:02:00,
2013-01-29 05:07:00,62.4,61.0,30.21,East,96,0.0,1.0,95,0.00,,,0.00,meteohub,2013-01-29 10:07:00,
2013-01-29 05:12:00,62.4,61.0,30.21,East,96,0.0,1.0,95,0.00,,,0.00,meteohub,2013-01-29 10:12:00,
2013-01-29 05:17:00,62.2,60.8,30.21,East,96,0.0,0.0,95,0.00,,,0.00,meteohub,2013-01-29 10:17:00,
2013-01-29 05:22:00,62.2,60.8,30.21,East,96,0.0,0.0,95,0.00,,,0.00,meteohub,2013-01-29 10:22:00,
2013-01-29 05:27:00,62.1,60.6,30.21,East,96,0.0,0.0,95,0.00,,,0.00,meteohub,2013-01-29 10:27:00,
2013-01-29 05:32:00,62.1,60.6,30.21,East,96,0.0,0.0,95,0.00,,,0.00,meteohub,2013-01-29 10:32:00,
2013-01-29 05:37:00,61.9,60.4,30.21,East,96,0.0,0.0,95,0.00,,,0.00,meteohub,2013-01-29 10:37:00,
2013-01-29 05:42:00,61.9,60.4,30.21,East,96,0.0,0.0,95,0.00,,,0.00,meteohub,2013-01-29 10:42:00,
2013-01-29 05:47:00,61.5,60.1,30.21,East,96,0.0,0.0,95,0.00,,,0.00,meteohub,2013-01-29 10:47:00,
2013-01-29 05:52:00,61.5,60.1,30.22,East,96,0.0,0.0,95,0.00,,,0.00,meteohub,2013-01-29 10:52:00,
2013-01-29 05:57:00,61.9,60.8,30.21,East,96,0.0,0.0,96,0.00,,,0.00,meteohub,2013-01-29 10:57:00,
2013-01-29 06:02:00,61.9,60.8,30.21,East,96,0.0,1.0,96,0.00,,,0.00,meteohub,2013-01-29 11:02:00,
2013-01-29 06:07:00,61.9,60.8,30.21,East,96,0.0,1.0,96,0.00,,,0.00,meteohub,2013-01-29 11:07:00,
2013-01-29 06:12:00,62.1,61.0,30.22,East,96,0.0,1.0,96,0.00,,,0.00,meteohub,2013-01-29 11:12:00,
2013-01-29 06:17:00,62.2,61.2,30.22,East,96,0.0,1.0,96,0.00,,,0.00,meteohub,2013-01-29 11:17:00,
2013-01-29 06:22:00,62.4,61.3,30.22,NE,34,0.0,3.0,96,0.00,,,0.00,meteohub,2013-01-29 11:22:00,
2013-01-29 06:27:00,62.4,61.3,30.22,NE,34,1.0,3.0,96,0.00,,,0.00,meteohub,2013-01-29 11:27:00,
2013-01-29 06:32:00,62.4,61.3,30.22,East,90,0.0,3.0,96,0.00,,,0.00,meteohub,2013-01-29 11:32:00,
2013-01-29 06:37:00,62.4,61.3,30.22,East,90,0.0,2.0,96,0.00,,,0.00,meteohub,2013-01-29 11:37:00,
2013-01-29 06:47:00,62.6,61.5,30.22,NE,51,0.0,2.0,96,0.00,,,0.00,meteohub,2013-01-29 11:47:00,
2013-01-29 06:52:00,62.8,61.7,30.22,East,95,0.0,2.0,96,0.00,,,0.00,meteohub,2013-01-29 11:52:00,
2013-01-29 06:57:00,62.8,61.7,30.22,ENE,68,0.0,2.0,96,0.00,,,0.00,meteohub,2013-01-29 11:57:00,
2013-01-29 07:07:00,63.0,61.9,30.22,NNE,30,2.0,5.0,96,0.00,,,0.00,meteohub,2013-01-29 12:07:00,
2013-01-29 07:12:00,63.0,61.9,30.22,NE,49,0.0,3.0,96,0.00,,,0.00,meteohub,2013-01-29 12:12:00,
2013-01-29 07:17:00,63.0,61.9,30.22,ENE,67,1.0,3.0,96,0.00,,,0.00,meteohub,2013-01-29 12:17:00,
2013-01-29 07:22:00,63.1,62.1,30.22,NNE,30,0.0,4.0,96,0.00,,,0.00,meteohub,2013-01-29 12:22:00,
2013-01-29 07:27:00,63.1,62.2,30.22,NE,39,0.0,4.0,97,0.00,,,0.00,meteohub,2013-01-29 12:27:00,
2013-01-29 07:32:00,63.1,62.2,30.22,ENE,78,1.0,4.0,97,0.00,,,0.00,meteohub,2013-01-29 12:32:00,
2013-01-29 07:37:00,63.3,62.4,30.22,NE,41,1.0,4.0,97,0.00,,,0.00,meteohub,2013-01-29 12:37:00,
2013-01-29 07:42:00,63.3,62.4,30.23,ESE,107,1.0,4.0,97,0.00,,,0.00,meteohub,2013-01-29 12:42:00,
2013-01-29 07:47:00,63.7,62.8,30.23,East,92,2.0,4.0,97,0.00,,,0.00,meteohub,2013-01-29 12:47:00,
2013-01-29 07:52:00,63.9,63.0,30.23,East,90,0.0,4.0,97,0.00,,,0.00,meteohub,2013-01-29 12:52:00,
2013-01-29 07:57:00,64.0,63.1,30.23,ENE,71,0.0,4.0,97,0.00,,,0.00,meteohub,2013-01-29 12:57:00,
2013-01-29 08:02:00,64.2,63.3,30.23,NE,49,1.0,3.0,97,0.00,,,0.00,meteohub,2013-01-29 13:02:00,
2013-01-29 08:07:00,64.2,63.3,30.23,ENE,58,1.0,5.0,97,0.00,,,0.00,meteohub,2013-01-29 13:07:00,
2013-01-29 08:12:00,64.6,63.7,30.23,NE,54,0.0,5.0,97,0.00,,,0.00,meteohub,2013-01-29 13:12:00,
2013-01-29 08:17:00,64.8,63.9,30.23,East,96,2.0,4.0,97,0.00,,,0.00,meteohub,2013-01-29 13:17:00,
2013-01-29 08:22:00,64.9,64.0,30.23,ESE,105,1.0,4.0,97,0.00,,,0.00,meteohub,2013-01-29 13:22:00,
2013-01-29 08:27:00,65.1,64.2,30.23,ESE,121,2.0,3.0,97,0.00,,,0.00,meteohub,2013-01-29 13:27:00,
2013-01-29 08:32:00,65.5,64.6,30.23,NE,51,0.0,3.0,97,0.00,,,0.00,meteohub,2013-01-29 13:32:00,
2013-01-29 08:37:00,65.7,64.8,30.24,ENE,74,0.0,7.0,97,0.00,,,0.00,meteohub,2013-01-29 13:37:00,
2013-01-29 08:42:00,65.8,64.9,30.23,NNE,17,1.0,7.0,97,0.00,,,0.00,meteohub,2013-01-29 13:42:00,
2013-01-29 08:47:00,66.0,65.1,30.23,ESE,114,3.0,7.0,97,0.00,,,0.00,meteohub,2013-01-29 13:47:00,
2013-01-29 08:52:00,66.2,65.3,30.23,ENE,76,0.0,6.0,97,0.00,,,0.00,meteohub,2013-01-29 13:52:00,
2013-01-29 08:57:00,66.4,65.5,30.24,ENE,67,2.0,6.0,97,0.00,,,0.00,meteohub,2013-01-29 13:57:00,
2013-01-29 09:02:00,66.6,65.7,30.23,ESE,116,1.0,6.0,97,0.00,,,0.00,meteohub,2013-01-29 14:02:00,
2013-01-29 09:07:00,66.6,65.7,30.24,East,94,1.0,5.0,97,0.00,,,0.00,meteohub,2013-01-29 14:07:00,
2013-01-29 09:12:00,66.7,65.8,30.24,East,82,1.0,5.0,97,0.00,,,0.00,meteohub,2013-01-29 14:12:00,
2013-01-29 09:17:00,66.7,65.8,30.23,East,90,2.0,5.0,97,0.00,,,0.00,meteohub,2013-01-29 14:17:00,
2013-01-29 09:22:00,66.9,66.0,30.23,ESE,105,1.0,5.0,97,0.00,,,0.00,meteohub,2013-01-29 14:22:00,
2013-01-29 09:27:00,67.1,66.2,30.23,East,81,2.0,8.0,97,0.00,,,0.00,meteohub,2013-01-29 14:27:00,
2013-01-29 09:32:00,67.3,66.4,30.23,ENE,69,4.0,8.0,97,0.00,,,0.00,meteohub,2013-01-29 14:32:00,
2013-01-29 09:37:00,67.5,66.6,30.23,ENE,77,3.0,8.0,97,0.00,,,0.00,meteohub,2013-01-29 14:37:00,
2013-01-29 09:42:00,67.6,66.7,30.23,ENE,75,3.0,7.0,97,0.00,,,0.00,meteohub,2013-01-29 14:42:00,
2013-01-29 09:47:00,67.8,66.9,30.23,NE,56,2.0,7.0,97,0.00,,,0.00,meteohub,2013-01-29 14:47:00,
2013-01-29 09:52:00,68.4,67.1,30.23,East,101,2.0,7.0,96,0.00,,,0.00,meteohub,2013-01-29 14:52:00,
2013-01-29 09:57:00,69.4,68.2,30.23,East,83,2.0,7.0,96,0.00,,,0.00,meteohub,2013-01-29 14:57:00,
2013-01-29 10:02:00,70.3,67.8,30.23,ESE,114,5.0,6.0,92,0.00,,,0.00,meteohub,2013-01-29 15:02:00,
2013-01-29 10:07:00,71.2,67.8,30.23,ESE,109,3.0,8.0,89,0.01,,,0.01,meteohub,2013-01-29 15:07:00,
2013-01-29 10:12:00,72.1,68.0,30.22,NE,45,3.0,8.0,87,0.01,,,0.01,meteohub,2013-01-29 15:12:00,
2013-01-29 10:17:00,73.0,68.2,30.22,ENE,62,4.0,8.0,85,0.01,,,0.01,meteohub,2013-01-29 15:17:00,
2013-01-29 10:22:00,73.6,68.2,30.22,East,99,5.0,9.0,83,0.01,,,0.01,meteohub,2013-01-29 15:22:00,
2013-01-29 10:27:00,74.1,68.0,30.22,ESE,106,8.0,9.0,81,0.01,,,0.01,meteohub,2013-01-29 15:27:00,
2013-01-29 10:32:00,74.7,68.4,30.22,East,86,7.0,9.0,81,0.01,,,0.01,meteohub,2013-01-29 15:32:00,
2013-01-29 10:37:00,75.0,68.4,30.22,NE,42,2.0,8.0,80,0.01,,,0.01,meteohub,2013-01-29 15:37:00,
2013-01-29 10:42:00,75.7,68.7,30.22,ENE,76,3.0,8.0,79,0.01,,,0.01,meteohub,2013-01-29 15:42:00,
2013-01-29 10:47:00,76.3,68.5,30.21,East,81,5.0,8.0,77,0.01,,,0.01,meteohub,2013-01-29 15:47:00,
2013-01-29 10:52:00,76.8,68.7,30.21,East,98,1.0,8.0,76,0.01,,,0.01,meteohub,2013-01-29 15:52:00,
2013-01-29 10:57:00,77.5,68.9,30.21,East,90,1.0,8.0,75,0.01,,,0.01,meteohub,2013-01-29 15:57:00,
2013-01-29 11:02:00,78.1,69.1,30.21,ESE,107,2.0,9.0,74,0.01,,,0.01,meteohub,2013-01-29 16:02:00,
2013-01-29 11:07:00,78.4,68.7,30.20,East,81,6.0,9.0,72,0.00,,,0.01,meteohub,2013-01-29 16:07:00,
2013-01-29 11:12:00,78.4,68.7,30.20,East,92,3.0,8.0,72,0.00,,,0.01,meteohub,2013-01-29 16:12:00,
2013-01-29 11:17:00,78.8,69.1,30.20,East,82,3.0,8.0,72,0.00,,,0.01,meteohub,2013-01-29 16:17:00,
2013-01-29 11:22:00,79.0,69.3,30.20,East,82,6.0,9.0,72,0.00,,,0.01,meteohub,2013-01-29 16:22:00,
2013-01-29 11:27:00,79.2,68.9,30.20,ENE,65,2.0,9.0,71,0.00,,,0.01,meteohub,2013-01-29 16:27:00,
2013-01-29 11:32:00,79.3,69.1,30.19,NE,46,3.0,9.0,71,0.00,,,0.01,meteohub,2013-01-29 16:32:00,
2013-01-29 11:37:00,79.9,69.3,30.19,NE,53,1.0,9.0,70,0.00,,,0.01,meteohub,2013-01-29 16:37:00,
2013-01-29 11:47:00,80.4,68.9,30.19,ESE,111,2.0,8.0,68,0.00,,,0.01,meteohub,2013-01-29 16:47:00,
2013-01-29 11:52:00,81.3,68.9,30.19,SE,137,4.0,8.0,66,0.00,,,0.01,meteohub,2013-01-29 16:52:00,
2013-01-29 11:57:00,81.3,68.4,30.19,ESE,118,4.0,7.0,65,0.00,,,0.01,meteohub,2013-01-29 16:57:00,
2013-01-29 12:07:00,81.1,68.2,30.18,NE,50,2.0,10.0,65,0.00,,,0.01,meteohub,2013-01-29 17:07:00,
2013-01-29 12:12:00,81.7,68.7,30.17,SE,141,4.0,10.0,65,0.00,,,0.01,meteohub,2013-01-29 17:12:00,
2013-01-29 12:17:00,82.0,68.2,30.17,SE,132,1.0,10.0,63,0.00,,,0.01,meteohub,2013-01-29 17:17:00,
2013-01-29 12:22:00,82.4,69.1,30.17,ESE,113,4.0,9.0,64,0.00,,,0.01,meteohub,2013-01-29 17:22:00,
2013-01-29 12:27:00,82.6,68.2,30.17,ESE,113,7.0,9.0,62,0.00,,,0.01,meteohub,2013-01-29 17:27:00,
2013-01-29 12:32:00,82.2,67.8,30.17,East,97,6.0,11.0,62,0.00,,,0.01,meteohub,2013-01-29 17:32:00,
2013-01-29 12:37:00,82.2,68.4,30.17,East,101,3.0,11.0,63,0.00,,,0.01,meteohub,2013-01-29 17:37:00,
2013-01-29 12:42:00,82.6,68.7,30.16,SE,140,2.0,11.0,63,0.00,,,0.01,meteohub,2013-01-29 17:42:00,
2013-01-29 12:47:00,83.1,68.4,30.16,East,92,1.0,11.0,61,0.00,,,0.01,meteohub,2013-01-29 17:47:00,
2013-01-29 12:52:00,83.7,68.4,30.16,ENE,76,5.0,7.0,60,0.00,,,0.01,meteohub,2013-01-29 17:52:00,
2013-01-29 12:57:00,83.7,67.8,30.15,East,83,7.0,8.0,59,0.00,,,0.01,meteohub,2013-01-29 17:57:00,
2013-01-29 13:02:00,83.5,67.6,30.15,ESE,113,4.0,11.0,59,0.00,,,0.01,meteohub,2013-01-29 18:02:00,
2013-01-29 13:07:00,83.8,66.4,30.15,SE,134,3.0,11.0,56,0.00,,,0.01,meteohub,2013-01-29 18:07:00,
2013-01-29 13:12:00,83.7,66.7,30.14,ESE,103,3.0,12.0,57,0.00,,,0.01,meteohub,2013-01-29 18:12:00,
2013-01-29 13:22:00,84.7,66.2,30.14,ESE,115,4.0,12.0,54,0.00,,,0.01,meteohub,2013-01-29 18:22:00,
2013-01-29 13:27:00,85.3,66.7,30.14,ESE,109,5.0,9.0,54,0.00,,,0.01,meteohub,2013-01-29 18:27:00,
2013-01-29 13:32:00,85.6,66.6,30.13,East,83,5.0,8.0,53,0.00,,,0.01,meteohub,2013-01-29 18:32:00,
2013-01-29 13:37:00,85.1,66.0,30.13,SSE,153,7.0,11.0,53,0.00,,,0.01,meteohub,2013-01-29 18:37:00,
2013-01-29 13:42:00,84.6,66.0,30.13,SSE,159,5.0,11.0,54,0.00,,,0.01,meteohub,2013-01-29 18:42:00,
2013-01-29 13:47:00,84.6,65.5,30.13,SE,141,4.0,11.0,53,0.00,,,0.01,meteohub,2013-01-29 18:47:00,
2013-01-29 13:52:00,84.0,65.7,30.13,ESE,113,1.0,10.0,54,0.00,,,0.01,meteohub,2013-01-29 18:52:00,
2013-01-29 13:57:00,83.8,66.0,30.13,ENE,57,1.0,10.0,55,0.00,,,0.01,meteohub,2013-01-29 18:57:00,
2013-01-29 14:02:00,84.6,66.0,30.12,East,92,1.0,10.0,54,0.00,,,0.01,meteohub,2013-01-29 19:02:00,
2013-01-29 14:07:00,85.5,66.4,30.12,East,86,2.0,7.0,53,0.00,,,0.01,meteohub,2013-01-29 19:07:00,
2013-01-29 14:12:00,85.8,65.7,30.12,East,79,2.0,8.0,51,0.00,,,0.01,meteohub,2013-01-29 19:12:00,
2013-01-29 14:17:00,86.0,65.8,30.12,East,98,2.0,8.0,51,0.00,,,0.01,meteohub,2013-01-29 19:17:00,
2013-01-29 14:22:00,85.5,65.8,30.12,SE,124,3.0,8.0,52,0.00,,,0.01,meteohub,2013-01-29 19:22:00,
2013-01-29 14:27:00,84.6,65.5,30.12,SE,128,1.0,8.0,53,0.00,,,0.01,meteohub,2013-01-29 19:27:00,
2013-01-29 14:32:00,84.4,65.8,30.12,ESE,119,1.0,8.0,54,0.00,,,0.01,meteohub,2013-01-29 19:32:00,
2013-01-29 14:37:00,84.4,66.9,30.12,SE,138,5.0,9.0,56,0.00,,,0.01,meteohub,2013-01-29 19:37:00,
2013-01-29 14:42:00,83.7,67.3,30.12,SSE,159,1.0,9.0,58,0.00,,,0.01,meteohub,2013-01-29 19:42:00,
2013-01-29 14:47:00,84.0,67.1,30.12,SSE,151,3.0,9.0,57,0.00,,,0.01,meteohub,2013-01-29 19:47:00,
2013-01-29 14:52:00,83.1,66.7,30.12,East,90,2.0,11.0,58,0.00,,,0.01,meteohub,2013-01-29 19:52:00,
2013-01-29 14:57:00,82.9,67.1,30.11,South,181,3.0,11.0,59,0.00,,,0.01,meteohub,2013-01-29 19:57:00,
2013-01-29 15:02:00,82.4,67.1,30.11,SE,132,4.0,12.0,60,0.00,,,0.01,meteohub,2013-01-29 20:02:00,
2013-01-29 15:07:00,82.2,66.4,30.11,ESE,119,8.0,12.0,59,0.00,,,0.01,meteohub,2013-01-29 20:07:00,
2013-01-29 15:12:00,82.0,66.7,30.11,South,170,6.0,15.0,60,0.00,,,0.01,meteohub,2013-01-29 20:12:00,
2013-01-29 15:22:00,81.3,66.6,30.11,SE,130,4.0,15.0,61,0.00,,,0.01,meteohub,2013-01-29 20:22:00,
2013-01-29 15:27:00,81.5,66.7,30.11,SSW,201,4.0,14.0,61,0.00,,,0.01,meteohub,2013-01-29 20:27:00,
2013-01-29 15:32:00,81.3,66.6,30.11,SSE,148,3.0,14.0,61,0.00,,,0.01,meteohub,2013-01-29 20:32:00,
2013-01-29 15:37:00,80.8,66.0,30.11,South,170,2.0,14.0,61,0.00,,,0.01,meteohub,2013-01-29 20:37:00,
2013-01-29 15:42:00,80.1,65.5,30.11,ESE,119,9.0,14.0,61,0.00,,,0.01,meteohub,2013-01-29 20:42:00,
2013-01-29 15:47:00,79.5,65.8,30.11,ESE,120,7.0,14.0,63,0.00,,,0.01,meteohub,2013-01-29 20:47:00,
2013-01-29 15:52:00,79.5,65.8,30.11,SSW,197,4.0,13.0,63,0.00,,,0.01,meteohub,2013-01-29 20:52:00,
2013-01-29 15:57:00,79.3,66.0,30.11,East,96,2.0,13.0,64,0.00,,,0.01,meteohub,2013-01-29 20:57:00,
2013-01-29 16:02:00,79.2,66.4,30.11,SE,135,9.0,14.0,65,0.00,,,0.01,meteohub,2013-01-29 21:02:00,
2013-01-29 16:07:00,79.0,66.6,30.11,SSW,200,3.0,14.0,66,0.00,,,0.01,meteohub,2013-01-29 21:07:00,
2013-01-29 16:12:00,79.5,66.7,30.11,SE,128,2.0,14.0,65,0.00,,,0.01,meteohub,2013-01-29 21:12:00,
2013-01-29 16:17:00,79.7,66.9,30.11,SE,134,4.0,14.0,65,0.00,,,0.01,meteohub,2013-01-29 21:17:00,
2013-01-29 16:22:00,79.3,66.9,30.11,SSW,195,5.0,10.0,66,0.00,,,0.01,meteohub,2013-01-29 21:22:00,
2013-01-29 16:27:00,79.0,67.1,30.11,ESE,111,3.0,10.0,67,0.00,,,0.01,meteohub,2013-01-29 21:27:00,
2013-01-29 16:32:00,79.0,67.1,30.11,SSE,153,0.0,10.0,67,0.00,,,0.01,meteohub,2013-01-29 21:32:00,
2013-01-29 16:37:00,78.6,66.7,30.11,SE,144,4.0,10.0,67,0.00,,,0.01,meteohub,2013-01-29 21:37:00,
2013-01-29 16:42:00,77.7,66.4,30.11,SSE,158,4.0,11.0,68,0.00,,,0.01,meteohub,2013-01-29 21:42:00,
2013-01-29 16:47:00,77.4,66.7,30.11,SSE,163,6.0,13.0,70,0.00,,,0.01,meteohub,2013-01-29 21:47:00,
2013-01-29 16:52:00,77.0,66.4,30.11,SE,142,6.0,13.0,70,0.00,,,0.01,meteohub,2013-01-29 21:52:00,
2013-01-29 16:57:00,76.8,66.7,30.11,ESE,106,4.0,12.0,71,0.00,,,0.01,meteohub,2013-01-29 21:57:00,
2013-01-29 17:02:00,77.0,66.4,30.11,SE,138,2.0,10.0,70,0.00,,,0.01,meteohub,2013-01-29 22:02:00,
2013-01-29 17:07:00,77.0,66.4,30.11,SE,138,5.0,8.0,70,0.00,,,0.01,meteohub,2013-01-29 22:07:00,
2013-01-29 17:12:00,76.8,66.2,30.11,SE,131,2.0,8.0,70,0.00,,,0.01,meteohub,2013-01-29 22:12:00,
2013-01-29 17:17:00,76.6,66.6,30.11,ESE,105,7.0,9.0,71,0.00,,,0.01,meteohub,2013-01-29 22:17:00,
2013-01-29 17:22:00,76.6,66.2,30.10,East,97,3.0,9.0,70,0.00,,,0.01,meteohub,2013-01-29 22:22:00,
2013-01-29 17:27:00,76.3,66.2,30.10,ESE,105,4.0,9.0,71,0.00,,,0.01,meteohub,2013-01-29 22:27:00,
2013-01-29 17:32:00,76.1,66.0,30.10,ESE,113,7.0,10.0,71,0.00,,,0.01,meteohub,2013-01-29 22:32:00,
2013-01-29 17:37:00,75.6,65.5,30.10,ESE,107,8.0,12.0,71,0.00,,,0.01,meteohub,2013-01-29 22:37:00,
2013-01-29 17:42:00,75.4,65.7,30.11,ESE,119,5.0,12.0,72,0.00,,,0.01,meteohub,2013-01-29 22:42:00,
2013-01-29 17:47:00,75.0,65.3,30.11,SSE,148,5.0,12.0,72,0.00,,,0.01,meteohub,2013-01-29 22:47:00,
2013-01-29 17:52:00,75.0,65.3,30.10,ESE,119,1.0,12.0,72,0.00,,,0.01,meteohub,2013-01-29 22:52:00,
2013-01-29 17:57:00,75.0,65.3,30.10,SE,134,4.0,12.0,72,0.00,,,0.01,meteohub,2013-01-29 22:57:00,
2013-01-29 18:02:00,74.8,65.7,30.11,SE,140,3.0,10.0,73,0.00,,,0.01,meteohub,2013-01-29 23:02:00,
2013-01-29 18:07:00,74.8,65.7,30.11,SSE,167,3.0,10.0,73,0.00,,,0.01,meteohub,2013-01-29 23:07:00,
2013-01-29 18:12:00,74.7,65.5,30.11,SE,140,3.0,10.0,73,0.00,,,0.01,meteohub,2013-01-29 23:12:00,
2013-01-29 18:17:00,74.7,65.8,30.11,SE,132,7.0,10.0,74,0.00,,,0.01,meteohub,2013-01-29 23:17:00,
2013-01-29 18:22:00,74.5,65.7,30.11,ESE,123,2.0,8.0,74,0.00,,,0.01,meteohub,2013-01-29 23:22:00,
2013-01-29 18:27:00,74.5,65.7,30.11,SE,140,1.0,8.0,74,0.00,,,0.01,meteohub,2013-01-29 23:27:00,
2013-01-29 18:32:00,74.5,65.7,30.11,ESE,119,1.0,8.0,74,0.00,,,0.01,meteohub,2013-01-29 23:32:00,
2013-01-29 18:37:00,74.5,65.7,30.11,SE,128,7.0,8.0,74,0.00,,,0.01,meteohub,2013-01-29 23:37:00,
2013-01-29 18:42:00,74.5,65.3,30.11,SE,140,2.0,12.0,73,0.00,,,0.01,meteohub,2013-01-29 23:42:00,
2013-01-29 18:47:00,74.7,65.8,30.11,SE,135,3.0,12.0,74,0.00,,,0.01,meteohub,2013-01-29 23:47:00,
2013-01-29 18:52:00,74.7,65.5,30.11,East,85,1.0,12.0,73,0.00,,,0.01,meteohub,2013-01-29 23:52:00,
2013-01-29 18:57:00,74.7,65.8,30.11,SE,132,2.0,8.0,74,0.00,,,0.01,meteohub,2013-01-29 23:57:00,
2013-01-29 19:02:00,74.5,65.7,30.11,SE,140,5.0,10.0,74,0.00,,,0.01,meteohub,2013-01-30 00:02:00,
2013-01-29 19:12:00,74.3,65.8,30.10,ESE,123,3.0,10.0,75,0.00,,,0.01,meteohub,2013-01-30 00:12:00,
2013-01-29 19:22:00,73.9,65.8,30.10,SE,136,6.0,8.0,76,0.00,,,0.01,meteohub,2013-01-30 00:22:00,
2013-01-29 19:27:00,73.9,65.8,30.10,South,169,6.0,10.0,76,0.00,,,0.01,meteohub,2013-01-30 00:27:00,
2013-01-29 19:32:00,73.8,66.0,30.10,ESE,112,9.0,10.0,77,0.00,,,0.01,meteohub,2013-01-30 00:32:00,
2013-01-29 19:37:00,73.6,65.8,30.11,SE,132,4.0,10.0,77,0.00,,,0.01,meteohub,2013-01-30 00:37:00,
2013-01-29 19:42:00,73.6,65.8,30.11,SE,133,7.0,11.0,77,0.00,,,0.01,meteohub,2013-01-30 00:42:00,
2013-01-29 19:47:00,73.6,66.4,30.11,ESE,107,3.0,11.0,78,0.00,,,0.01,meteohub,2013-01-30 00:47:00,
2013-01-29 19:52:00,73.6,66.4,30.11,SE,138,5.0,9.0,78,0.00,,,0.01,meteohub,2013-01-30 00:52:00,
2013-01-29 19:57:00,73.6,66.4,30.11,SE,144,5.0,9.0,78,0.00,,,0.01,meteohub,2013-01-30 00:57:00,
2013-01-29 20:02:00,73.6,66.4,30.11,SE,134,5.0,10.0,78,0.00,,,0.01,meteohub,2013-01-30 01:02:00,
2013-01-29 20:07:00,73.6,66.4,30.11,SE,124,1.0,10.0,78,0.00,,,0.01,meteohub,2013-01-30 01:07:00,
2013-01-29 20:12:00,73.6,66.4,30.11,SE,138,1.0,11.0,78,0.00,,,0.01,meteohub,2013-01-30 01:12:00,
2013-01-29 20:17:00,73.6,66.4,30.11,SE,133,4.0,11.0,78,0.00,,,0.01,meteohub,2013-01-30 01:17:00,
2013-01-29 20:22:00,73.6,66.4,30.11,SE,137,6.0,11.0,78,0.00,,,0.01,meteohub,2013-01-30 01:22:00,
2013-01-29 20:27:00,73.6,66.4,30.11,ESE,105,7.0,11.0,78,0.00,,,0.01,meteohub,2013-01-30 01:27:00,
2013-01-29 20:32:00,73.6,66.7,30.11,SSE,149,2.0,11.0,79,0.00,,,0.01,meteohub,2013-01-30 01:32:00,
2013-01-29 20:37:00,73.6,66.7,30.11,ESE,116,5.0,11.0,79,0.00,,,0.01,meteohub,2013-01-30 01:37:00,
2013-01-29 20:47:00,73.6,66.7,30.10,ESE,114,7.0,13.0,79,0.00,,,0.01,meteohub,2013-01-30 01:47:00,
2013-01-29 20:52:00,73.6,66.7,30.10,SSE,155,3.0,13.0,79,0.00,,,0.01,meteohub,2013-01-30 01:52:00,
2013-01-29 20:57:00,73.4,66.6,30.10,South,177,3.0,12.0,79,0.00,,,0.01,meteohub,2013-01-30 01:57:00,
2013-01-29 21:02:00,73.2,66.4,30.10,SSE,167,3.0,11.0,79,0.00,,,0.01,meteohub,2013-01-30 02:02:00,
2013-01-29 21:07:00,73.2,66.7,30.10,East,79,2.0,9.0,80,0.00,,,0.01,meteohub,2013-01-30 02:07:00,
2013-01-29 21:12:00,73.0,66.6,30.09,East,92,3.0,8.0,80,0.00,,,0.01,meteohub,2013-01-30 02:12:00,
2013-01-29 21:17:00,73.0,66.6,30.09,SE,132,3.0,8.0,80,0.00,,,0.01,meteohub,2013-01-30 02:17:00,
2013-01-29 21:22:00,73.0,66.6,30.09,SSE,164,0.0,8.0,80,0.00,,,0.01,meteohub,2013-01-30 02:22:00,
2013-01-29 21:27:00,72.9,66.4,30.09,SSE,151,5.0,8.0,80,0.00,,,0.01,meteohub,2013-01-30 02:27:00,
2013-01-29 21:32:00,72.9,66.4,30.09,SE,135,3.0,10.0,80,0.00,,,0.01,meteohub,2013-01-30 02:32:00,
2013-01-29 21:37:00,72.9,66.4,30.09,ESE,116,4.0,10.0,80,0.00,,,0.01,meteohub,2013-01-30 02:37:00,
2013-01-29 21:42:00,72.7,66.6,30.09,ESE,119,3.0,10.0,81,0.00,,,0.01,meteohub,2013-01-30 02:42:00,
2013-01-29 21:47:00,72.7,66.6,30.09,ESE,105,3.0,9.0,81,0.00,,,0.01,meteohub,2013-01-30 02:47:00,
2013-01-29 21:52:00,72.7,66.6,30.09,SSE,151,4.0,10.0,81,0.00,,,0.01,meteohub,2013-01-30 02:52:00,
2013-01-29 21:57:00,72.7,66.9,30.09,ESE,119,4.0,10.0,82,0.00,,,0.01,meteohub,2013-01-30 02:57:00,
2013-01-29 22:02:00,72.7,66.9,30.09,East,87,3.0,10.0,82,0.00,,,0.01,meteohub,2013-01-30 03:02:00,
2013-01-29 22:07:00,72.5,66.7,30.09,SSE,156,0.0,10.0,82,0.00,,,0.01,meteohub,2013-01-30 03:07:00,
2013-01-29 22:12:00,72.3,66.6,30.09,SSE,153,4.0,10.0,82,0.00,,,0.01,meteohub,2013-01-30 03:12:00,
2013-01-29 22:17:00,72.3,66.9,30.10,ESE,109,2.0,10.0,83,0.00,,,0.01,meteohub,2013-01-30 03:17:00,
2013-01-29 22:22:00,72.5,67.1,30.10,SE,145,3.0,9.0,83,0.00,,,0.01,meteohub,2013-01-30 03:22:00,
2013-01-29 22:27:00,72.7,67.3,30.10,East,94,5.0,8.0,83,0.00,,,0.01,meteohub,2013-01-30 03:27:00,
2013-01-29 22:32:00,72.7,67.3,30.10,SE,140,4.0,8.0,83,0.00,,,0.01,meteohub,2013-01-30 03:32:00,
2013-01-29 22:37:00,72.7,67.3,30.10,SSE,157,5.0,8.0,83,0.00,,,0.01,meteohub,2013-01-30 03:37:00,
2013-01-29 22:42:00,72.7,66.9,30.10,SSE,166,4.0,10.0,82,0.00,,,0.01,meteohub,2013-01-30 03:42:00,
2013-01-29 22:47:00,72.9,67.1,30.10,SSE,161,3.0,10.0,82,0.00,,,0.01,meteohub,2013-01-30 03:47:00,
2013-01-29 22:52:00,72.9,67.1,30.10,SE,143,4.0,8.0,82,0.00,,,0.01,meteohub,2013-01-30 03:52:00,
2013-01-29 22:57:00,72.9,67.1,30.10,East,99,8.0,8.0,82,0.00,,,0.01,meteohub,2013-01-30 03:57:00,
2013-01-29 23:02:00,72.9,67.1,30.10,SE,126,3.0,9.0,82,0.00,,,0.01,meteohub,2013-01-30 04:02:00,
2013-01-29 23:07:00,72.9,67.1,30.10,SE,134,1.0,9.0,82,0.00,,,0.01,meteohub,2013-01-30 04:07:00,
2013-01-29 23:12:00,72.9,67.1,30.10,SE,131,1.0,10.0,82,0.00,,,0.01,meteohub,2013-01-30 04:12:00,
2013-01-29 23:17:00,72.9,67.1,30.11,East,99,3.0,10.0,82,0.00,,,0.01,meteohub,2013-01-30 04:17:00,
2013-01-29 23:22:00,72.9,67.1,30.11,SE,142,7.0,10.0,82,0.00,,,0.01,meteohub,2013-01-30 04:22:00,
2013-01-29 23:32:00,72.9,67.1,30.10,ESE,119,2.0,10.0,82,0.00,,,0.01,meteohub,2013-01-30 04:32:00,
2013-01-29 23:37:00,72.9,67.1,30.10,SE,136,0.0,8.0,82,0.00,,,0.01,meteohub,2013-01-30 04:37:00,
2013-01-29 23:42:00,72.9,67.5,30.10,ESE,102,2.0,7.0,83,0.00,,,0.00,meteohub,2013-01-30 04:42:00,
2013-01-29 23:47:00,72.7,67.3,30.10,SE,125,5.0,7.0,83,0.00,,,0.00,meteohub,2013-01-30 04:47:00,
2013-01-29 23:52:00,72.7,67.3,30.09,East,101,3.0,7.0,83,0.00,,,0.00,meteohub,2013-01-30 04:52:00,
2013-01-29 23:57:00,72.5,67.1,30.09,East,83,3.0,7.0,83,0.00,,,0.00,meteohub,2013-01-30 04:57:00,